Commit Graph

221 Commits

Author SHA1 Message Date
felinae98 63fa370823 optimize platform 2021-04-26 17:35:55 +08:00
felinae98 337dc2e5fd remove scheduler plugin 2021-04-26 17:35:21 +08:00
felinae98 83178261d5 add monster-siren 2021-04-08 12:39:16 +08:00
felinae98 4f82ae2518 Merge branch 'main' into arknights 2021-03-03 20:37:37 +08:00
felinae98 33a969e782 add retry 2021-03-03 20:36:48 +08:00
felinae98 88dead62e2 fix get weibo error 2021-03-03 20:14:25 +08:00
felinae98 5602524365 Merge branch 'main' into arknights 2021-03-01 14:22:24 +08:00
felinae98 0d6c64110a add log for cancel top 2021-03-01 14:22:03 +08:00
felinae98 dc6a4511eb modify get top algo 2021-03-01 14:17:31 +08:00
felinae98 98c13b5445 modify get top algo 2021-03-01 14:17:16 +08:00
felinae98 18338679b3 rich log 2021-03-01 10:52:20 +08:00
felinae98 382521e6f7 fix cancel top 2021-03-01 01:21:38 +08:00
felinae98 762b24c45f fix cancel top 2021-03-01 01:21:23 +08:00
felinae98 7535fd609f modify util 2021-03-01 01:13:10 +08:00
felinae98 a13bbc229e rename arknights 2021-03-01 01:06:47 +08:00
felinae98 8c40d306d1 Merge branch 'main' into arknights 2021-03-01 01:05:58 +08:00
felinae98 aa3525648a add weibo cancel top listen 2021-03-01 01:03:51 +08:00
felinae98 2ea8ffdc4e disable wechat 2021-03-01 01:01:40 +08:00
felinae98 5af0e0fa9d revoke wechat 2021-02-27 15:52:00 +08:00
felinae98 e4dc980093 fix syntax 2021-02-27 14:15:33 +08:00
felinae98 bd078e233d Merge branch 'main' into arknights 2021-02-27 14:05:30 +08:00
felinae98 d56c608dd7 support wechat 2021-02-27 14:03:46 +08:00
felinae98 ed163cc842 add support for wechat 2021-02-27 13:49:37 +08:00
felinae98 cae55d8f38 Merge branch 'main' into arknights 2021-02-26 21:44:43 +08:00
felinae98 574c950afb update to 0.2.5, suport windows 2021-02-26 20:47:58 +08:00
felinae98 c47b0c4425 use tempfile, test 2021-02-26 20:16:16 +08:00
felinae98 b14604fd3a update to 0.2.4, fix unable to use by nbcli mentioned in #2 2021-02-26 19:44:50 +08:00
felinae98 60ce3ccc9e Merge branch 'main' into arknights 2021-02-19 15:59:04 +08:00
felinae98 a2a91ee804 add logger for merge image 2021-02-19 15:58:44 +08:00
felinae98 0d35e3390e Revert "add log for merge image"
This reverts commit 385d47268f.
2021-02-19 15:54:56 +08:00
felinae98 c51284c260 Merge branch 'main' into arknights 2021-02-19 15:45:40 +08:00
felinae98 385d47268f add log for merge image 2021-02-19 15:45:21 +08:00
felinae98 855ec9a61d Merge branch 'main' into arknights 2021-02-19 14:39:10 +08:00
felinae98 0f59590ccf add pic merge 2021-02-19 14:38:59 +08:00
felinae98 2da7b30c23 add announce nanme 2021-02-19 00:48:09 +08:00
felinae98 b1c292331f Merge branch 'main' into arknights 2021-02-19 00:46:31 +08:00
felinae98 b15523b52c update post 2021-02-19 00:46:23 +08:00
felinae98 f130c7d79b not pass url for aknights 2021-02-19 00:41:10 +08:00
felinae98 b4366e5f4a Merge branch 'main' into arknights 2021-02-19 00:39:59 +08:00
felinae98 f2e6bea108 not print url when no url 2021-02-19 00:39:34 +08:00
felinae98 b6f69372d9 fix arknights post 2021-02-19 00:31:48 +08:00
felinae98 eed733417c Merge branch 'main' into arknights 2021-02-19 00:27:57 +08:00
felinae98 6b91d52228 fix None 2021-02-19 00:27:44 +08:00
felinae98 764643ec96 Merge branch 'main' into arknights 2021-02-19 00:26:38 +08:00
felinae98 de456630f3 add override use pic 2021-02-19 00:26:15 +08:00
felinae98 d4d62da739 fix compress 2021-02-18 23:16:46 +08:00
felinae98 5bb63231f4 fix compress 2021-02-18 23:16:28 +08:00
felinae98 815f860062 Merge branch 'main' into arknights 2021-02-18 22:58:24 +08:00
felinae98 37c3751f0a update post style 2021-02-18 22:57:24 +08:00
felinae98 61aca493cb use compress for arknights 2021-02-18 22:40:45 +08:00